Flag for India Weather past 2 weeks in Kãnpur, Uttar Pradesh, India

Now
77 °F

Partly cloudy.


Feels Like: 79 °F
Forecast: 73 / 84 °F
Wind: 5 mph from Southeast

Location: Lucknow / Amausi

Current Time: Mar 30, 2015 at 3:16:07 AM

Latest Report: Mar 30, 2015 at 2:00 AM


Visibility: 2 mi

Pressure: 29.80 "Hg

Humidity: 65%

Dew point: 64 °F

Location of KãnpurLocation

Historic Weather in Kãnpur — Graph

°F

Kãnpur temperature yesterday

Maximum temperature yesterday: 99 °F (at 2:00 PM)
Minimum temperature yesterday: 64 °F (at 4:00 AM)
Average temperature yesterday: 84 °F

Past Weeks' High & Low Weather Summary

 TemperatureHumidityPressure
High100 °F (Mar 26, 2:30 PM)100% (Mar 16, 7:00 AM)30.12 "Hg (Mar 16, 7:00 AM)
Low57 °F (Mar 20, 6:00 AM)20% (Mar 28, 4:30 PM)29.53 "Hg (Mar 22, 3:00 PM)
Average78 °F59%29.90 "Hg
* Reported Mar 15 1:00 AM — Mar 30 1:00 AM, Kãnpur, Weather by CustomWeather, © 2015

Note: Actual official high and low records may vary slightly from our data, if they occured in-between our weather recording intervals... More about our weather records

Advertising

Kãnpur weather history for previous 24 hours

 ConditionsComfort  
Time TempWeatherWind HumidityBarometerVisibility
1:00 AM
Mon, Mar 30
81 °FLight rain. Partly cloudy.9 mph58%29.86 "Hg1 mi
12:00 AM81 °FPartly cloudy.9 mph54%29.83 "Hg1 mi
9:00 PM
Sun, Mar 29
86 °FPartly cloudy.5 mph46%29.77 "Hg2 mi
8:30 PM86 °FPartly cloudy.5 mph43%29.74 "Hg2 mi
8:00 PM88 °FPartly cloudy.3 mph43%29.74 "Hg2 mi
7:30 PM90 °FPartly cloudy.2 mph38%29.74 "Hg3 mi
7:00 PM91 °FPartly cloudy.2 mph36%29.74 "Hg3 mi
6:30 PM93 °FBroken clouds.2 mph34%29.71 "Hg3 mi
6:00 PM95 °FBroken clouds.2 mph30%29.71 "Hg3 mi
5:30 PM97 °FBroken clouds.2 mph28%29.71 "Hg3 mi
5:00 PM97 °FBroken clouds.2 mph28%29.71 "Hg3 mi
4:30 PM99 °FBroken clouds.2 mph24%29.71 "Hg3 mi
4:00 PM99 °FBroken clouds.2 mph27%29.71 "Hg3 mi
3:30 PM99 °FBroken clouds.2 mph27%29.71 "Hg3 mi
2:30 PM99 °FBroken clouds.2 mph25%29.74 "Hg3 mi
2:00 PM99 °FBroken clouds.2 mph25%29.77 "Hg3 mi
1:30 PM95 °FBroken clouds.5 mph28%29.77 "Hg3 mi
12:30 PM95 °FBroken clouds.2 mph28%29.80 "Hg3 mi
12:00 PM93 °FBroken clouds.2 mph32%29.83 "Hg3 mi
11:30 AM93 °FBroken clouds.6 mph39%29.83 "Hg3 mi
10:30 AM90 °FBroken clouds.5 mph46%29.86 "Hg3 mi
9:00 AM81 °FPartly sunny.5 mph66%29.86 "Hg2 mi
8:30 AM77 °FPartly sunny.5 mph74%29.83 "Hg2 mi
8:00 AM73 °FPartly sunny.5 mph78%29.83 "Hg2 mi
7:30 AM72 °FHaze.No wind69%29.83 "Hg2 mi
7:00 AM70 °FHaze.No wind73%29.83 "Hg2 mi
6:30 AM68 °FHaze.No wind78%29.80 "Hg2 mi
6:00 AM68 °FHaze.No wind73%29.80 "Hg2 mi
5:30 AM66 °FHaze.No wind73%29.77 "Hg2 mi
5:00 AM66 °FHaze.No wind73%29.77 "Hg2 mi
4:00 AM64 °FHaze.No wind78%29.77 "Hg2 mi
Weather by CustomWeather, © 2015

See weather overviewHow to use our weather pages